PROFILE

 METAR AND TAF INFORMATION
ADDS - METARS form results

(0549 UTC 21 September 2018)
http://aviationweather.gov/metar/data/
 
TNCM 210500Z 07006KT 8000 HZ FEW020 28/23 Q1016 A3000 RMK HZ ALQDS
TNCM 210520Z 2106/2206 07008KT 6SM HZ FEW018 FM211300 08014KT P6SM SCT020 FM212300 07009KT P6SM FEW022 

 AIRPORT MAP

 RUNWAY INFORMATION
Runway 10 Runway length 7546 ft Runway width 150 ft
Runway elevation 13 ft Runway displaced threshold 0 ft Runway heading 96
Runway 28 Runway length 7546 ft Runway width 150 ft
Runway elevation 9 ft Runway displaced threshold 328 ft Runway heading 276

 AIRPORT FREQUENCIES
Type APP Name JULIANA AP Frequency 128.95 MHZ
Type TWR Name JULIANA TW Frequency 118.7 MHZ

 AIRPORT NEAR NAVIGATION AIDS
Type NDB Name St.mMarten Frequency 284 KHZ
Type VOR-DME Name St.mMarten Frequency 113000 KHZ